Tracking 19477 objects as of 16-Jan-2019
HD Live streaming from Space Station
objects crossing your sky now

COSMOS 2350

Track COSMOS 2350 now!
COSMOS 2350 is classified as:


NORAD ID: 25315
Int'l Code: 1998-025A
Perigee: 35,788.9 km
Apogee: 35,805.8 km
Inclination: 12.8 °
Period: 1,436.3 minutes
Semi major axis: 42168 km
RCS: 5 m2 (large)
Launch date: April 29, 1998
Source: Commonwealth of Independent States (former USSR) (CIS)
Launch site: TYURATAM MISSILE AND SPACE COMPLEX (TTMTR)
aabbcc
Your satellite tracking list
Your tracking list is empty




NASA's NSSDC Master Catalog

Two Line Element Set (TLE):
1 25315U 98025A   19016.05194382 -.00000116  00000-0  00000+0 0  9997
2 25315  12.8281  24.1354 0002007  20.3561 166.3360  1.00259054 75884
Source of the keplerian elements: AFSPC